Flag for Canada Weather past 2 weeks in Pond Inlet, Nunavut, Canada

Now
28 °F

Partly sunny.


Feels Like: 25 °F
Forecast: N/A
Wind: 3 mph from West

Location: Pond Inlet

Current Time: May 29, 2015 at 7:09:40 PM

Latest Report: May 29, 2015 at 6:00 PM


Visibility: 40 mi

Pressure: 29.68 "Hg

Humidity: 80%

Dew point: 23 °F

Location of Pond InletLocation

Historic Weather in Pond Inlet — Graph

°F

Pond Inlet temperature yesterday

Maximum temperature yesterday: 28 °F (at 1:00 PM)
Minimum temperature yesterday: 19 °F (at 1:00 AM)
Average temperature yesterday: 26 °F

Past Weeks' High & Low Weather Summary

 TemperatureHumidityPressure
High30 °F (May 24, 11:01 AM)100% (May 24, 5:00 AM)30.10 "Hg (May 24, 5:00 AM)
Low7 °F (May 17, 4:00 AM)53% (May 16, 5:00 PM)29.53 "Hg (May 24, 12:53 PM)
Average21 °F78%29.82 "Hg
* Reported May 14 6:00 PM — May 29 6:00 PM, Pond Inlet, Weather by CustomWeather, © 2015

Note: Actual official high and low records may vary slightly from our data, if they occured in-between our weather recording intervals... More about our weather records

Advertising

Pond Inlet weather history for previous 24 hours

 ConditionsComfort  
Time TempWeatherWind HumidityBarometerVisibility
6:00 PM
Fri, May 29
28 °FPartly sunny.3 mph80%29.68 "Hg40 mi
5:00 PM27 °FBroken clouds.2 mph80%29.69 "Hg40 mi
4:00 PM27 °FBroken clouds.5 mph80%29.69 "Hg40 mi
3:00 PM27 °FScattered clouds.5 mph80%29.70 "Hg40 mi
2:00 PM27 °FScattered clouds.6 mph80%29.70 "Hg40 mi
1:00 PM25 °FScattered clouds.5 mph80%29.71 "Hg40 mi
12:00 PM23 °FScattered clouds.5 mph86%29.73 "Hg40 mi
11:00 AM23 °FScattered clouds.6 mph80%29.73 "Hg40 mi
10:00 AM21 °FSunny.7 mph86%29.74 "Hg9 mi
9:00 AM21 °FSunny.5 mph86%29.76 "Hg9 mi
8:00 AM21 °FSunny.2 mph80%29.77 "Hg9 mi
7:00 AM21 °FSunny.8 mph80%29.78 "Hg9 mi
6:00 AM19 °FSunny.6 mph79%29.80 "Hg9 mi
5:00 AM19 °FSunny.6 mph79%29.81 "Hg9 mi
4:00 AM21 °FSunny.7 mph74%29.82 "Hg9 mi
3:00 AM19 °FSunny.6 mph86%29.83 "Hg9 mi
2:00 AM25 °FOvercast.No wind80%29.85 "Hg9 mi
1:00 AM25 °FOvercast.No wind80%29.87 "Hg9 mi
12:00 AM27 °FOvercast.No wind74%29.89 "Hg9 mi
11:00 PM
Thu, May 28
27 °FOvercast.3 mph74%29.92 "Hg9 mi
10:00 PM27 °FOvercast.5 mph74%29.94 "Hg9 mi
9:00 PM27 °FOvercast.3 mph80%29.96 "Hg9 mi
8:00 PM27 °FOvercast.5 mph86%29.98 "Hg9 mi
7:00 PM28 °FPartly sunny.5 mph74%30.00 "Hg40 mi
Weather by CustomWeather, © 2015

See weather overviewHow to use our weather pages